カタリナ彗星

P/2019 Y3 ( Catalina )

English version
Home page
Updated on February 19, 2020

---------------------------------------------------------------------

・ プロフィール

発見日 2019年12月17日
発見光度 18.6等
発見者 Kacper W. Wierzchos (Catalina Sky Survey)

・ 軌道要素

Epoch 2019 Dec. 23.0 TT = JDT 2458840.5
T 2019 Dec. 13.45960 TT                                 Bell
q   0.9119984            (2000.0)            P               Q
n   0.18988187     Peri.    2.26679     -0.78188502     -0.56126381
a   2.9978764      Node   139.38261     +0.56522087     -0.82185527
e   0.6957852      Incl.   24.63523     +0.26302316     +0.09765676
P   5.19
From 85 observations 2019 Dec. 17-2020 Jan. 27, mean residual 0".7.

・ 光度変化

        m1 = 18.5 + 5 logΔ + 10.0 log r

---------------------------------------------------------------------

軌道要素はM.P.E.C. 2020-C98に掲載されたものです。
光度グラフはComet for Windowsで作成したものです。

---------------------------------------------------------------------

Copyright(C) Seiichi Yoshida (comet@aerith.net). All rights reserved.